Highgate, VT

7:16 AM EDT on September 21, 2019 (GMT -0400)
Franklin County State

Weather History for KFSO - August, 2019

Change the Weather History Date:

Sunday, August 25, 2019

  Actual Average (WUND) Record (WUND)
Temperature  
Mean Temperature 66 °F -  
Max Temperature 78 °F - - (-1)
Min Temperature 53 °F - - (-1)
Growing Degree Days 16 (Base 50)    
Moisture  
Dew Point 57 °F    
Average Humidity 76    
Maximum Humidity 96    
Minimum Humidity 49    
Precipitation  
Precipitation 0.00 in - - ()
Sea Level Pressure  
Sea Level Pressure 30.32 in    
Wind  
Wind Speed 1 mph (NNE)    
Max Wind Speed 7 mph    
Max Gust Speed -    
Visibility 10 miles    
Events      
Averages and records for this station are not official NWS values.
T = Trace of Precipitation, MM = Missing Value Source: NWS Daily Summary

Daily Weather History Graph

Daily Weather History Graph

Search for Another Location

Airport or City:

Astronomy

Aug. 25, 2019 Rise Set
Actual Time 6:05 AM EDT 7:42 PM EDT
Civil Twilight 5:34 AM EDT 8:13 PM EDT
Nautical Twilight 4:57 AM EDT 8:50 PM EDT
Astronomical Twilight 4:16 AM EDT 9:30 PM EDT
Moon 12:30 AM EDT (8/25) 4:09 PM EDT (8/25)
Length of Visible Light 14h 38m
Length of Day
13h 36m
Waning Crescent, 29% of the Moon is Illuminated
Aug 25
Waning Crescent
Aug 30
New
Sep 5
First Quarter
Sep 14
Full
Sep 21
Last Quarter

Hourly Weather History & Observations

Time (EDT) Temp. Dew Point Humidity Pressure Visibility Wind Dir Wind Speed Gust Speed Precip Events Conditions
12:15 AM 58.1 °F 56.7 °F 95% 30.32 in 7.0 mi Calm Calm - N/A   Clear
12:35 AM 57.7 °F 56.5 °F 96% 30.33 in 10.0 mi Calm Calm - N/A   Clear
12:55 AM 56.8 °F 55.6 °F 96% 30.33 in 10.0 mi Calm Calm - N/A   Clear
1:35 AM 56.7 °F 55.4 °F 96% 30.32 in 10.0 mi East 3.5 mph - N/A   Clear
1:56 AM 55.8 °F 54.5 °F 96% 30.31 in 10.0 mi Calm Calm - N/A   Clear
2:16 AM 56.3 °F 54.9 °F 95% 30.31 in 10.0 mi Calm Calm - N/A   Clear
2:35 AM 55.6 °F 54.3 °F 96% 30.31 in 10.0 mi Calm Calm - N/A   Clear
2:56 AM 54.5 °F 53.2 °F 96% 30.31 in 10.0 mi Calm Calm - N/A   Clear
3:15 AM 54.7 °F 53.6 °F 96% 30.32 in 7.0 mi Calm Calm - N/A   Clear
3:36 AM 53.8 °F 52.7 °F 96% 30.32 in 10.0 mi Calm Calm - N/A   Clear
3:55 AM 53.1 °F 51.8 °F 95% 30.32 in 10.0 mi ESE 4.6 mph - N/A   Clear
4:15 AM 54.0 °F 52.7 °F 95% 30.32 in 10.0 mi ESE 3.5 mph - N/A   Clear
4:35 AM 53.6 °F 52.3 °F 95% 30.32 in 10.0 mi Calm Calm - N/A   Clear
4:55 AM 54.0 °F 52.7 °F 95% 30.32 in 10.0 mi Calm Calm - N/A   Clear
5:15 AM 53.8 °F 52.5 °F 95% 30.32 in 10.0 mi ESE 3.5 mph - N/A   Clear
5:36 AM 53.6 °F 52.3 °F 95% 30.33 in 10.0 mi East 4.6 mph - N/A   Clear
5:56 AM 54.0 °F 52.7 °F 95% 30.33 in 10.0 mi Calm Calm - N/A   Clear
6:15 AM 53.4 °F 52.2 °F 95% 30.34 in 10.0 mi Calm Calm - N/A   Clear
6:35 AM 53.6 °F 52.2 °F 95% 30.34 in 10.0 mi Calm Calm - N/A   Clear
6:55 AM 54.5 °F 53.1 °F 95% 30.35 in 10.0 mi Calm Calm - N/A   Clear
7:35 AM 56.1 °F 54.5 °F 94% 30.36 in 10.0 mi Calm Calm - N/A   Clear
7:56 AM 57.6 °F 55.8 °F 94% 30.37 in 10.0 mi Calm Calm - N/A   Clear
8:15 AM 58.6 °F 56.1 °F 91% 30.37 in 10.0 mi East 3.5 mph - N/A   Clear
8:36 AM 60.6 °F 56.5 °F 86% 30.37 in 10.0 mi Calm Calm - N/A   Clear
8:56 AM 62.2 °F 56.8 °F 82% 30.37 in 10.0 mi Calm Calm - N/A   Clear
9:16 AM 65.3 °F 57.9 °F 77% 30.38 in 10.0 mi Calm Calm - N/A   Clear
9:36 AM 66.6 °F 58.3 °F 75% 30.38 in 10.0 mi Calm Calm - N/A   Clear
9:55 AM 68.2 °F 58.6 °F 71% 30.38 in 10.0 mi SE 3.5 mph - N/A   Clear
10:16 AM 69.6 °F 59.2 °F 69% 30.38 in 10.0 mi SSE 3.5 mph - N/A   Clear
10:35 AM 70.2 °F 59.0 °F 68% 30.38 in 10.0 mi Calm Calm - N/A   Clear
10:56 AM 70.9 °F 58.5 °F 65% 30.38 in 10.0 mi SSW 3.5 mph - N/A   Clear
11:15 AM 72.5 °F 58.8 °F 62% 30.37 in 10.0 mi Calm Calm - N/A   Clear
11:35 AM 73.6 °F 57.9 °F 58% 30.37 in 10.0 mi Calm Calm - N/A   Clear
11:56 AM 73.6 °F 56.8 °F 56% 30.37 in 10.0 mi Calm Calm - N/A   Clear
12:15 PM 73.6 °F 60.1 °F 63% 30.37 in 10.0 mi Calm Calm - N/A   Mostly Cloudy
12:36 PM 74.8 °F 57.7 °F 55% 30.35 in 10.0 mi West 4.6 mph - N/A   Mostly Cloudy
12:55 PM 76.1 °F 58.8 °F 55% 30.35 in 10.0 mi SW 3.5 mph - N/A   Scattered Clouds
1:16 PM 76.3 °F 58.1 °F 53% 30.34 in 10.0 mi NNW 3.5 mph - N/A   Scattered Clouds
1:36 PM 73.8 °F 60.1 °F 62% 30.33 in 10.0 mi NNE 5.8 mph - N/A   Mostly Cloudy
1:56 PM 74.7 °F 58.5 °F 57% 30.33 in 10.0 mi NNE 3.5 mph - N/A   Scattered Clouds
2:16 PM 77.2 °F 59.0 °F 53% 30.32 in 10.0 mi NW 3.5 mph - N/A   Clear
2:36 PM 77.5 °F 58.5 °F 52% 30.32 in 10.0 mi North 6.9 mph - N/A   Scattered Clouds
2:55 PM 75.6 °F 58.8 °F 56% 30.31 in 10.0 mi NW 3.5 mph - N/A   Scattered Clouds
3:16 PM 77.2 °F 58.5 °F 52% 30.30 in 10.0 mi WNW 4.6 mph - N/A   Clear
3:36 PM 77.5 °F 58.1 °F 51% 30.30 in 10.0 mi NNW 3.5 mph - N/A   Clear
3:55 PM 77.7 °F 58.5 °F 51% 30.30 in 10.0 mi NW 3.5 mph - N/A   Clear
4:15 PM 78.1 °F 57.7 °F 49% 30.29 in 10.0 mi WNW 5.8 mph - N/A   Clear
4:35 PM 78.4 °F 58.1 °F 50% 30.28 in 10.0 mi North 3.5 mph - N/A   Clear
4:56 PM 78.3 °F 57.6 °F 49% 30.27 in 10.0 mi North 5.8 mph - N/A   Clear
5:15 PM 77.7 °F 57.6 °F 50% 30.27 in 10.0 mi North 4.6 mph - N/A   Clear
5:35 PM 78.1 °F 57.2 °F 49% 30.27 in 10.0 mi NNW 4.6 mph - N/A   Clear
5:56 PM 77.7 °F 57.0 °F 49% 30.27 in 10.0 mi NNW 3.5 mph - N/A   Clear
6:15 PM 77.4 °F 57.6 °F 50% 30.27 in 10.0 mi Calm Calm - N/A   Clear
6:35 PM 76.6 °F 56.5 °F 50% 30.26 in 10.0 mi NNW 3.5 mph - N/A   Clear
6:55 PM 75.2 °F 57.9 °F 55% 30.26 in 10.0 mi Calm Calm - N/A   Clear
7:16 PM 71.4 °F 58.1 °F 63% 30.26 in 10.0 mi Calm Calm - N/A   Clear
7:35 PM 69.1 °F 59.0 °F 70% 30.27 in 10.0 mi Calm Calm - N/A   Clear
7:55 PM 66.6 °F 60.6 °F 81% 30.27 in 5.0 mi Calm Calm - N/A   Haze
8:16 PM 64.8 °F 60.8 °F 87% 30.27 in 10.0 mi Calm Calm - N/A   Clear
8:35 PM 63.5 °F 60.6 °F 90% 30.27 in 10.0 mi Calm Calm - N/A   Clear
8:55 PM 61.9 °F 59.2 °F 91% 30.28 in 10.0 mi Calm Calm - N/A   Clear
9:16 PM 61.3 °F 59.2 °F 93% 30.28 in 10.0 mi Calm Calm - N/A   Clear
9:55 PM 59.9 °F 58.5 °F 95% 30.28 in 10.0 mi Calm Calm - N/A   Clear
10:15 PM 59.0 °F 57.6 °F 95% 30.28 in 10.0 mi Calm Calm - N/A   Clear
10:36 PM 59.7 °F 58.5 °F 96% 30.28 in 10.0 mi East 5.8 mph - N/A   Clear
10:55 PM 60.8 °F 57.6 °F 89% 30.28 in 10.0 mi East 5.8 mph - N/A   Clear
11:16 PM 60.3 °F 55.8 °F 85% 30.28 in 10.0 mi SSE 3.5 mph - N/A   Clear
11:35 PM 59.5 °F 55.6 °F 87% 30.28 in 10.0 mi East 6.9 mph - N/A   Clear
11:56 PM 60.1 °F 54.7 °F 82% 30.27 in 10.0 mi East 6.9 mph - N/A   Clear